| time (UTC) | temp F | wind direction | speed knots | gust knots | rain 1hr in | rain 24hr in | rain mn in | humidity % | barometer mb |
| 20260506203054 | 47 | 7 | 3.5 | 6.1 | 0.00 | 0.58 | 0.52 | 91 | 1010.5 |
| 20260506202054 | 47 | 355 | 2.6 | 4.3 | 0.00 | 0.59 | 0.52 | 91 | 1010.5 |
| 20260506201059 | 47 | 355 | 2.6 | 4.3 | 0.00 | 0.61 | 0.52 | 93 | 1010.4 |
| 20260506195052 | 48 | 333 | 1.7 | 1.7 | 0.00 | 0.64 | 0.52 | 94 | 1010.1 |
| 20260506194052 | 48 | 9 | 0.9 | 2.6 | 0.00 | 0.65 | 0.52 | 95 | 1010.1 |
| 20260506193052 | 49 | 18 | 1.7 | 2.6 | 0.00 | 0.67 | 0.52 | 94 | 1009.9 |
| 20260506192052 | 49 | 60 | 0.9 | 1.7 | 0.00 | 0.68 | 0.52 | 93 | 1009.9 |
| 20260506191052 | 49 | 52 | 0.9 | 1.7 | 0.00 | 0.69 | 0.52 | 92 | 1009.9 |
| 20260506190054 | 49 | 52 | 0.9 | 1.7 | 0.00 | 0.70 | 0.52 | 92 | 1009.8 |
| 20260506185051 | 49 | 65 | 0.9 | 2.6 | 0.00 | 0.71 | 0.52 | 91 | 1009.7 |
| 20260506184051 | 49 | 81 | 0.9 | 2.6 | 0.00 | 0.72 | 0.52 | 91 | 1009.7 |
| 20260506182054 | 49 | 335 | 1.7 | 4.3 | 0.00 | 0.75 | 0.52 | 91 | 1009.4 |
| 20260506181050 | 49 | 274 | 2.6 | 3.5 | 0.00 | 0.75 | 0.52 | 92 | 1009.3 |
| 20260506180053 | 50 | 269 | 2.6 | 3.5 | 0.00 | 0.76 | 0.52 | 93 | 1009.2 |
| 20260506175053 | 50 | 269 | 2.6 | 3.5 | 0.00 | 0.76 | 0.52 | 92 | 1009.0 |
| 20260506174050 | 50 | 270 | 2.6 | 4.3 | 0.00 | 0.77 | 0.52 | 92 | 1008.9 |
| 20260506172052 | 50 | 269 | 2.6 | 4.3 | 0.00 | 0.79 | 0.52 | 92 | 1008.7 |
| 20260506171050 | 50 | 280 | 2.6 | 4.3 | 0.00 | 0.79 | 0.52 | 92 | 1008.6 |
| 20260506170047 | 50 | 289 | 2.6 | 4.3 | 0.00 | 0.80 | 0.52 | 92 | 1008.7 |
| 20260506165047 | 50 | 302 | 3.5 | 5.2 | 0.00 | 0.80 | 0.52 | 91 | 1008.6 |
| 20260506164049 | 50 | 300 | 3.5 | 5.2 | 0.00 | 0.80 | 0.52 | 90 | 1008.6 |
| 20260506163049 | 50 | 302 | 4.3 | 6.1 | 0.00 | 0.81 | 0.52 | 90 | 1008.6 |
| 20260506162052 | 51 | 313 | 4.3 | 7.0 | 0.00 | 0.81 | 0.52 | 89 | 1008.6 |
| 20260506161050 | 51 | 305 | 4.3 | 7.0 | 0.00 | 0.81 | 0.52 | 88 | 1008.6 |
| 20260506160048 | 51 | 313 | 3.5 | 6.1 | 0.00 | 0.82 | 0.52 | 88 | 1008.6 |
| 20260506155050 | 51 | 324 | 3.5 | 6.1 | 0.00 | 0.83 | 0.52 | 88 | 1008.6 |
| 20260506154053 | 51 | 340 | 2.6 | 4.3 | 0.00 | 0.83 | 0.52 | 88 | 1008.5 |
| 20260506153049 | 51 | 351 | 2.6 | 4.3 | 0.00 | 0.84 | 0.52 | 88 | 1008.5 |
| 20260506151052 | 50 | 20 | 0.9 | 2.6 | 0.00 | 0.85 | 0.52 | 87 | 1008.5 |
| 20260506144049 | 49 | 19 | 3.5 | 7.0 | 0.00 | 0.85 | 0.52 | 88 | 1008.7 |
| 20260506143047 | 49 | 20 | 3.5 | 5.2 | 0.00 | 0.85 | 0.52 | 89 | 1008.7 |
| 20260506142048 | 49 | 26 | 3.5 | 7.0 | 0.00 | 0.85 | 0.52 | 88 | 1008.6 |
| 20260506141048 | 49 | 27 | 3.5 | 7.0 | 0.00 | 0.85 | 0.52 | 88 | 1008.6 |
| 20260506140053 | 50 | 27 | 3.5 | 7.0 | 0.00 | 0.85 | 0.52 | 88 | 1008.5 |
| 20260506135050 | 50 | 15 | 6.1 | 10.4 | 0.00 | 0.85 | 0.52 | 89 | 1008.5 |
| 20260506134049 | 50 | 11 | 7.0 | 13.0 | 0.00 | 0.85 | 0.52 | 88 | 1008.5 |
| 20260506133048 | 50 | 22 | 4.3 | 8.7 | 0.00 | 0.85 | 0.52 | 87 | 1008.5 |
| 20260506132050 | 50 | 37 | 6.1 | 11.3 | 0.00 | 0.85 | 0.52 | 85 | 1008.4 |
| 20260506131047 | 51 | 19 | 6.1 | 10.4 | 0.00 | 0.85 | 0.52 | 86 | 1008.3 |
| 20260506130048 | 51 | 23 | 5.2 | 10.4 | 0.00 | 0.85 | 0.52 | 89 | 1008.2 |
| 20260506125048 | 51 | 35 | 5.2 | 9.6 | 0.00 | 0.85 | 0.52 | 89 | 1008.2 |
| 20260506123049 | 50 | 13 | 6.1 | 11.3 | 0.00 | 0.85 | 0.52 | 91 | 1008.1 |
| 20260506122049 | 50 | 10 | 7.0 | 11.3 | 0.00 | 0.85 | 0.52 | 92 | 1008.0 |
| 20260506121047 | 49 | 10 | 4.3 | 8.7 | 0.00 | 0.85 | 0.52 | 92 | 1007.9 |
| 20260506120047 | 49 | 359 | 7.0 | 11.3 | 0.00 | 0.85 | 0.52 | 94 | 1007.9 |
| 20260506115047 | 49 | 5 | 6.1 | 10.4 | 0.00 | 0.85 | 0.52 | 94 | 1007.8 |
| 20260506114048 | 49 | 1 | 7.0 | 10.4 | 0.00 | 0.85 | 0.52 | 95 | 1007.6 |
| 20260506113048 | 49 | 355 | 7.0 | 11.3 | 0.00 | 0.85 | 0.52 | 95 | 1007.6 |
| 20260506112048 | 49 | 1 | 6.1 | 10.4 | 0.00 | 0.85 | 0.52 | 96 | 1007.5 |
| 20260506111050 | 48 | 2 | 7.0 | 12.2 | 0.00 | 0.85 | 0.52 | 97 | 1007.6 |
| 20260506110047 | 48 | 2 | 6.1 | 10.4 | 0.00 | 0.85 | 0.52 | 96 | 1007.7 |
| 20260506105049 | 48 | 353 | 6.1 | 9.6 | 0.00 | 0.85 | 0.52 | 96 | 1007.7 |
| 20260506104050 | 48 | 354 | 6.1 | 9.6 | 0.01 | 0.85 | 0.52 | 96 | 1007.7 |
| 20260506103050 | 47 | 343 | 6.1 | 8.7 | 0.01 | 0.85 | 0.52 | 97 | 1007.7 |
| 20260506102049 | 47 | 349 | 5.2 | 7.8 | 0.01 | 0.85 | 0.52 | 97 | 1007.7 |
| 20260506101047 | 47 | 350 | 4.3 | 8.7 | 0.01 | 0.85 | 0.52 | 97 | 1007.7 |
| 20260506100046 | 47 | 348 | 5.2 | 7.0 | 0.02 | 0.85 | 0.52 | 97 | 1007.7 |
| 20260506095050 | 47 | 345 | 4.3 | 7.8 | 0.02 | 0.85 | 0.52 | 97 | 1007.7 |
| 20260506094048 | 47 | 350 | 4.3 | 7.0 | 0.02 | 0.85 | 0.52 | 97 | 1007.6 |
| 20260506093048 | 47 | 345 | 5.2 | 7.0 | 0.02 | 0.84 | 0.51 | 98 | 1007.5 |
| 20260506092048 | 47 | 350 | 4.3 | 7.8 | 0.02 | 0.84 | 0.51 | 98 | 1007.5 |
| 20260506091048 | 46 | 343 | 4.3 | 7.8 | 0.03 | 0.84 | 0.51 | 98 | 1007.4 |
| 20260506090049 | 46 | 349 | 4.3 | 6.1 | 0.03 | 0.84 | 0.51 | 97 | 1007.4 |
| 20260506085048 | 46 | 347 | 4.3 | 7.8 | 0.02 | 0.83 | 0.50 | 97 | 1007.4 |
| 20260506084048 | 46 | 351 | 5.2 | 7.8 | 0.02 | 0.83 | 0.50 | 97 | 1007.3 |
| 20260506083045 | 46 | 349 | 4.3 | 7.0 | 0.02 | 0.83 | 0.50 | 97 | 1007.1 |
| 20260506081023 | 46 | 359 | 4.3 | 7.0 | 0.04 | 0.82 | 0.49 | 98 | 1007.1 |
| 20260506073045 | 45 | 357 | 5.2 | 8.7 | 0.06 | 0.80 | 0.47 | 98 | 1006.9 |
| 20260506072046 | 45 | 357 | 5.2 | 9.6 | 0.08 | 0.80 | 0.47 | 98 | 1006.8 |
| 20260506071045 | 45 | 358 | 6.1 | 10.4 | 0.08 | 0.80 | 0.46 | 98 | 1006.7 |
| 20260506062022 | 45 | 3 | 4.3 | 9.6 | 0.07 | 0.74 | 0.41 | 98 | 1006.3 |
| 20260506051047 | 45 | 4 | 6.1 | 9.6 | 0.06 | 0.67 | 0.34 | 98 | 1006.2 |
| 20260506045022 | 45 | 3 | 5.2 | 9.6 | 0.06 | 0.65 | 0.32 | 98 | 1006.3 |
| 20260506042045 | 45 | 10 | 5.2 | 8.7 | 0.06 | 0.63 | 0.30 | 98 | 1006.1 |
| 20260506041042 | 46 | 11 | 6.1 | 9.6 | 0.06 | 0.62 | 0.29 | 98 | 1006.1 |
| 20260506040047 | 46 | 13 | 5.2 | 8.7 | 0.05 | 0.61 | 0.28 | 98 | 1006.1 |
| 20260506034048 | 46 | 16 | 5.2 | 8.7 | 0.04 | 0.59 | 0.26 | 98 | 1006.1 |
| 20260506032044 | 46 | 12 | 4.3 | 7.0 | 0.04 | 0.58 | 0.25 | 98 | 1006.1 |
| 20260506031045 | 46 | 11 | 6.1 | 10.4 | 0.03 | 0.57 | 0.24 | 98 | 1006.2 |
| 20260506030045 | 46 | 7 | 6.1 | 9.6 | 0.03 | 0.57 | 0.24 | 98 | 1006.2 |
| 20260506025043 | 46 | 6 | 5.2 | 10.4 | 0.03 | 0.56 | 0.23 | 98 | 1006.2 |
| 20260506024046 | 46 | 9 | 4.3 | 7.0 | 0.03 | 0.55 | 0.22 | 98 | 1006.2 |
| 20260506023047 | 46 | 10 | 5.2 | 9.6 | 0.04 | 0.55 | 0.22 | 98 | 1006.2 |
| 20260506022045 | 47 | 14 | 4.3 | 7.8 | 0.04 | 0.54 | 0.21 | 98 | 1006.2 |
| 20260506021047 | 47 | 17 | 5.2 | 7.0 | 0.05 | 0.54 | 0.21 | 98 | 1006.2 |
| 20260506020046 | 47 | 13 | 4.3 | 7.0 | 0.06 | 0.54 | 0.21 | 98 | 1006.2 |
| 20260506015047 | 47 | 19 | 4.3 | 8.7 | 0.06 | 0.54 | 0.20 | 98 | 1006.3 |
| 20260506014047 | 47 | 21 | 5.2 | 7.8 | 0.06 | 0.53 | 0.20 | 98 | 1006.3 |
| 20260506013047 | 47 | 21 | 4.3 | 8.7 | 0.06 | 0.52 | 0.19 | 98 | 1006.4 |
| 20260506011044 | 47 | 20 | 4.3 | 7.0 | 0.06 | 0.50 | 0.17 | 98 | 1006.4 |
| 20260506010033 | 47 | 16 | 5.2 | 8.7 | 0.06 | 0.50 | 0.17 | 98 | 1006.4 |
| 20260506004045 | 47 | 16 | 4.3 | 7.0 | 0.06 | 0.48 | 0.15 | 98 | 1006.5 |
| 20260506003023 | 47 | 20 | 4.3 | 8.7 | 0.06 | 0.47 | 0.14 | 98 | 1006.5 |
| 20260506001023 | 47 | 21 | 4.3 | 7.8 | 0.06 | 0.45 | 0.12 | 98 | 1006.8 |
| 20260506000044 | 47 | 14 | 4.3 | 8.7 | 0.07 | 0.45 | 0.12 | 98 | 1006.9 |
| 20260505235049 | 47 | 8 | 3.5 | 6.1 | 0.07 | 0.44 | 0.11 | 98 | 1007.0 |
| 20260505234050 | 48 | 17 | 5.2 | 9.6 | 0.07 | 0.43 | 0.10 | 98 | 1007.0 |
| 20260505233049 | 48 | 17 | 5.2 | 9.6 | 0.07 | 0.43 | 0.09 | 98 | 1007.0 |
| 20260505231050 | 48 | 29 | 5.2 | 9.6 | 0.06 | 0.39 | 0.06 | 98 | 1007.0 |
| 20260505225053 | 48 | 30 | 6.1 | 9.6 | 0.06 | 0.38 | 0.05 | 97 | 1007.0 |
| 20260505224051 | 48 | 31 | 6.1 | 9.6 | 0.06 | 0.37 | 0.04 | 97 | 1007.0 |
| 20260505223050 | 48 | 27 | 7.0 | 11.3 | 0.05 | 0.36 | 0.03 | 97 | 1007.1 |
| 20260505222051 | 48 | 27 | 5.2 | 10.4 | 0.05 | 0.35 | 0.02 | 97 | 1007.1 |
| 20260505221051 | 48 | 24 | 5.2 | 8.7 | 0.04 | 0.34 | 0.01 | 97 | 1007.2 |
| 20260505220049 | 48 | 22 | 4.3 | 7.0 | 0.04 | 0.33 | 0.00 | 98 | 1007.2 |
| 20260505215056 | 48 | 22 | 4.3 | 7.0 | 0.05 | 0.33 | 0.33 | 98 | 1007.2 |
| 20260505214055 | 48 | 26 | 4.3 | 7.0 | 0.05 | 0.32 | 0.32 | 98 | 1007.3 |
| 20260505213054 | 48 | 18 | 4.3 | 7.8 | 0.05 | 0.31 | 0.31 | 98 | 1007.3 |
| 20260505212055 | 48 | 15 | 4.3 | 7.0 | 0.06 | 0.31 | 0.31 | 98 | 1007.4 |
| 20260505211053 | 48 | 20 | 5.2 | 7.8 | 0.07 | 0.31 | 0.31 | 98 | 1007.4 |
| 20260505210052 | 48 | 19 | 5.2 | 9.6 | 0.07 | 0.30 | 0.30 | 98 | 1007.5 |
| 20260505205051 | 48 | 20 | 6.1 | 9.6 | 0.08 | 0.29 | 0.29 | 98 | 1007.5 |
| 20260505204054 | 48 | 16 | 4.3 | 8.7 | 0.09 | 0.28 | 0.28 | 98 | 1007.5 |